sat.trackr.live / text

‹ back to catalog

STARLINK-3613

NORAD 51810 · 2022-017AU

PAYLOAD ACTIVE UNKNOWN

§ Identity

Operator
Country
US
Launch date
2022-02-25
Launch site
AFWTR
Launch vehicle
Mass (kg)
RCS (m²)

Purposes: comms

External: N2YO · Heavens-Above · Gunter

§ Orbital elements

Epoch: 2026-05-24T23:28:35.585760Z

Period
95.44 min
Inclination
53.2134°
Eccentricity
0.0001056
Mean motion
15.08842303 rev/d
Perigee alt
539.0 km
Apogee alt
540.5 km
Semi-major
6,917.9 km
B*
3.0071e-5
RAAN
346.8690°
Arg perigee
67.7899°
Mean anomaly
292.3205°
Rev number
23,559

§ Raw data

STARLINK-36131 51810U 22017AU  26144.97818965  .00000191  00000+0  30071-4 0  99922 51810  53.2134 346.8690 0001056  67.7899 292.3205 15.08842303235590

JSON: /api/v1/satellites/51810 · /tle

For live sub-satellite position, see the globe view (requires WebGL).

§ Visibility from observer

Set your observer location to see the next 7 days of passes ≥ 10°. The values pass through the URL so the page stays shareable.

No JS? Fill the form by hand. The geolocation button needs JavaScript.